{"data":{"norad_id":45217,"epoch":"2026-09-20T01:58:25.943808Z","epoch_age_seconds":54284,"freshness":"FRESH","line1":"1 45217U 20012AR  26263.08224472  .00042739  00000+0  92765-3 0  9998","line2":"2 45217  53.1532 193.0535 0002006 109.2805 250.8419 15.43980248365039","mean_motion":15.43980248,"eccentricity":0.0002006,"inclination_deg":53.1532,"raan_deg":193.0535,"arg_perigee_deg":109.2805,"mean_anomaly_deg":250.8419,"bstar":0.00092765,"rev_number":36503,"period_min":93.265441825782,"perigee_km":433.00947048437,"apogee_km":435.74265072428,"semimajor_km":6812.5130606043,"source":"CELESTRAK","updated_at":"2026-09-20T09:00:38.227766Z"}}